SCP
0 0 0 0 0 0 0 0 0 0 0 0 0 0 0 0 0 0 0 0 0 0
0 0 0 0 0 0 0 0 0 0 0 0 0 0 0 0 0 0 0 0 0 0
0 0 0 0 0 0 0 0 0 0 0 0 0 0 0 0 0 0 0 0 0 0
0 0 0 0 0 0 0 0 0 0 0 0 0 0 0 0 0 0 0 0 0 0
0 0 0 0 0 0 0 0 0 0 0 0 0 0 0 0 0 0 0 0 0 0
0 0 0 0 0 0 0 0 0 0 0 0 0 0 0 0 0 0 0 0 0 0
0 0 0 0 0 0 0 0 0 0 0 0 0 0 0 0 0 0 0 0 0 0
0 0 0 0 0 0 0 0 0 0 0 0 0 0 0 0 0 0 0 0 0 0
0 0 0 0 0 0 0 0 0 0 0 0 0 0 0 0 0 0 0 0 0 0
0 0 0 0 0 0 0 0 0 0 0 0 0 0 0 0 0 0 0 0 0 0
0 0 0 0 0 0 0 0 0 0 0 0 0 0 0 0 0 0 0 0 0 0
0 0 0 0 0 0 0 0 0 0 0 0 0 0 0 0 0 0 0 0 0 0
0 0 0 0 0 0 0 0 0 0 0 0 0 0 0 0 0 0 0 0 0 0
0 0 0 0 0 0 0 0 0 0 0 0 0 0 0 0 0 0 0 0 0 0
Wind_Speed_500mb
26 23 19 15 13 14 18 23 27 30 34 37 42 47 50 52 54 58 61 63 63 63
22 17 14 13 14 16 19 22 27 31 36 41 46 50 55 59 62 66 69 71 71 70
17 14 12 11 12 15 19 22 27 35 42 46 51 55 60 66 69 72 71 72 74 74
15 9 6 8 12 15 20 27 35 41 45 50 56 61 65 70 72 74 76 76 76 77
11 5 5 9 13 18 27 35 40 44 48 53 59 65 69 73 75 77 78 78 78 77
8 2 5 9 16 24 30 36 41 45 52 60 65 68 70 73 74 74 74 74 74 75
7 2 5 9 16 23 31 40 44 51 59 65 67 68 68 70 71 72 72 71 69 70
10 7 8 12 20 27 34 42 49 57 63 66 68 66 65 67 71 72 72 71 68 67
13 8 12 16 22 29 37 45 53 60 66 68 67 62 63 67 69 67 66 68 65 62
14 14 15 18 24 32 40 49 56 64 67 67 64 63 65 66 63 64 64 64 63 63
20 18 17 19 26 35 44 52 59 65 66 66 63 61 64 66 64 64 59 57 58 61
25 20 19 23 30 37 45 54 61 65 65 65 62 60 62 63 62 60 62 63 63 65
23 22 23 26 31 37 46 56 62 66 65 63 62 58 57 56 54 59 60 63 67 65
26 27 26 28 32 38 48 57 62 66 66 63 58 52 50 42 46 55 64 70 75 71
Wind_Direction_500mb
128 120 109 92 66 36 18 7 360 352 347 342 338 333 331 329 328 325 323 321 317 313
126 114 94 69 43 22 7 356 348 342 337 333 333 333 332 331 328 325 322 318 316 313
123 102 78 50 18 360 350 343 338 335 335 336 336 334 332 328 324 321 319 315 314 312
127 103 56 14 357 347 341 336 337 338 338 337 336 332 329 324 321 318 316 314 311 309
142 108 22 355 344 340 340 340 340 340 339 336 332 330 327 323 319 316 313 311 308 306
151 68 349 337 338 338 339 338 337 336 336 334 332 329 325 321 318 316 312 310 307 303
182 265 303 313 324 330 336 339 338 337 335 331 328 327 325 321 318 315 311 309 305 302
207 245 270 308 321 329 336 337 338 335 331 328 326 327 323 318 316 312 309 307 304 302
219 264 283 301 316 329 334 336 334 331 329 327 327 326 320 317 314 311 309 309 306 300
231 262 272 300 322 329 332 333 332 330 327 326 327 325 322 319 316 314 312 309 309 307
238 245 272 301 319 329 332 331 330 328 327 328 329 325 322 321 318 316 315 317 317 317
225 247 277 302 319 325 328 330 330 328 328 327 329 326 324 321 319 322 327 329 325 321
230 257 279 298 310 322 329 331 330 329 327 327 326 325 323 323 329 326 323 322 325 323
240 259 275 294 309 323 329 330 330 326 324 323 323 323 323 326 323 321 324 324 325 322
Wind_Speed_850mb
26 23 19 15 13 14 18 23 27 30 34 37 42 47 50 52 54 58 61 63 63 63
22 17 14 13 14 16 19 22 27 31 36 41 46 50 55 59 62 66 69 71 71 70
17 14 12 11 12 15 19 22 27 35 42 46 51 55 60 66 69 72 71 72 74 74
15 9 6 8 12 15 20 27 35 41 45 50 56 61 65 70 72 74 76 76 76 77
11 5 5 9 13 18 27 35 40 44 48 53 59 65 69 73 75 77 78 78 78 77
8 2 5 9 16 24 30 36 41 45 52 60 65 68 70 73 74 74 74 74 74 75
7 2 5 9 16 23 31 40 44 51 59 65 67 68 68 70 71 72 72 71 69 70
10 7 8 12 20 27 34 42 49 57 63 66 68 66 65 67 71 72 72 71 68 67
13 8 12 16 22 29 37 45 53 60 66 68 67 62 63 67 69 67 66 68 65 62
14 14 15 18 24 32 40 49 56 64 67 67 64 63 65 66 63 64 64 64 63 63
20 18 17 19 26 35 44 52 59 65 66 66 63 61 64 66 64 64 59 57 58 61
25 20 19 23 30 37 45 54 61 65 65 65 62 60 62 63 62 60 62 63 63 65
23 22 23 26 31 37 46 56 62 66 65 63 62 58 57 56 54 59 60 63 67 65
26 27 26 28 32 38 48 57 62 66 66 63 58 52 50 42 46 55 64 70 75 71
Wind_Direction_850mb
128 120 109 92 66 36 18 7 360 352 347 342 338 333 331 329 328 325 323 321 317 313
126 114 94 69 43 22 7 356 348 342 337 333 333 333 332 331 328 325 322 318 316 313
123 102 78 50 18 360 350 343 338 335 335 336 336 334 332 328 324 321 319 315 314 312
127 103 56 14 357 347 341 336 337 338 338 337 336 332 329 324 321 318 316 314 311 309
142 108 22 355 344 340 340 340 340 340 339 336 332 330 327 323 319 316 313 311 308 306
151 68 349 337 338 338 339 338 337 336 336 334 332 329 325 321 318 316 312 310 307 303
182 265 303 313 324 330 336 339 338 337 335 331 328 327 325 321 318 315 311 309 305 302
207 245 270 308 321 329 336 337 338 335 331 328 326 327 323 318 316 312 309 307 304 302
219 264 283 301 316 329 334 336 334 331 329 327 327 326 320 317 314 311 309 309 306 300
231 262 272 300 322 329 332 333 332 330 327 326 327 325 322 319 316 314 312 309 309 307
238 245 272 301 319 329 332 331 330 328 327 328 329 325 322 321 318 316 315 317 317 317
225 247 277 302 319 325 328 330 330 328 328 327 329 326 324 321 319 322 327 329 325 321
230 257 279 298 310 322 329 331 330 329 327 327 326 325 323 323 329 326 323 322 325 323
240 259 275 294 309 323 329 330 330 326 324 323 323 323 323 326 323 321 324 324 325 322